Flag for U.S.A. Weather past 2 weeks in Temple, Texas, U.S.A.

Now
70 °F

Clear.


Feels Like: 70 °F
Forecast: 66 / 76 °F
Wind: 9 mph from South

Location: Fort Hood AAF Airport

Current Time: Mar 31, 2015 at 11:47:16 PM

Latest Report: Mar 31, 2015 at 10:58 PM


Visibility: 10 mi

Pressure: 29.90 "Hg

Humidity: 75%

Dew point: 62 °F

Location of TempleLocation

Historic Weather in Temple — Graph

°F

Temple temperature yesterday

Maximum temperature yesterday: 80 °F (at 3:58 PM)
Minimum temperature yesterday: 62 °F (at 3:58 AM)
Average temperature yesterday: 70 °F

Past Weeks' High & Low Weather Summary

 TemperatureHumidityPressure
High86 °F (Mar 28, 4:58 PM)100% (Mar 19, 1:58 AM)30.19 "Hg (Mar 19, 1:58 AM)
Low45 °F (Mar 27, 3:58 AM)17% (Mar 28, 3:58 PM)29.76 "Hg (Mar 25, 5:58 PM)
Average65 °F74%30.02 "Hg
* Reported Mar 16 9:58 PM — Mar 31 9:58 PM, Temple, Weather by CustomWeather, © 2015

Note: Actual official high and low records may vary slightly from our data, if they occured in-between our weather recording intervals... More about our weather records

Advertising

Temple weather history for previous 24 hours

 ConditionsComfort  
Time TempWeatherWind HumidityBarometerVisibility
9:58 PM
Tue, Mar 31
71 °FClear.10 mph71%29.93 "Hg10 mi
8:58 PM73 °FClear.13 mph66%29.89 "Hg10 mi
7:58 PM75 °FSunny.13 mph61%29.88 "Hg10 mi
6:58 PM78 °FSunny.15 mph54%29.87 "Hg10 mi
5:58 PM80 °FSunny.16 mph49%29.87 "Hg10 mi
4:58 PM82 °FSunny.15 mph47%29.88 "Hg10 mi
3:58 PM83 °FSunny.14 mph43%29.90 "Hg10 mi
2:58 PM82 °FSunny.15 mph44%29.93 "Hg10 mi
1:58 PM80 °FSunny.14 mph48%29.96 "Hg10 mi
12:58 PM78 °FSunny.10 mph53%29.99 "Hg10 mi
11:58 AM76 °FSunny.12 mph59%30.01 "Hg10 mi
10:58 AM74 °FPassing clouds.15 mph63%30.02 "Hg10 mi
8:58 AM68 °FSunny.10 mph85%30.02 "Hg9 mi
7:58 AM65 °FFog.9 mph94%30.01 "Hg5 mi
6:58 AM67 °FOvercast.8 mph89%29.99 "Hg9 mi
5:58 AM67 °FOvercast.9 mph88%29.97 "Hg8 mi
4:58 AM67 °FOvercast.13 mph87%29.97 "Hg9 mi
3:58 AM67 °FOvercast.12 mph88%29.97 "Hg9 mi
2:58 AM67 °FOvercast.15 mph90%29.98 "Hg9 mi
1:58 AM67 °FPassing clouds.12 mph87%30.01 "Hg9 mi
12:58 AM68 °FClear.10 mph83%30.01 "Hg9 mi
11:58 PM
Mon, Mar 30
69 °FClear.13 mph79%30.02 "Hg9 mi
Weather by CustomWeather, © 2015

See weather overviewHow to use our weather pages